This is the latest recevied weather packets stored in our database for station/object KM4KBD. If no packets are shown the sender has not sent any weather packets the latest 10 day(s).
| Time | Temp. | Humidity | Pressure | Rain* | Wind** | Luminosity | Snow |
|---|---|---|---|---|---|---|---|
| 1777926812 | 25° C | 45% | 1015.8 hPa | 0 mm | - | 515 W/m² | - |
| 1777926508 | 25° C | 46% | 1015.6 hPa | 0 mm | - | 511 W/m² | - |
| 1777926206 | 25° C | 44% | 1015.8 hPa | 0 mm | - | 517 W/m² | - |
| 1777925902 | 25° C | 45% | 1015.9 hPa | 0 mm | - | 531 W/m² | - |
| 1777925600 | 25° C | 49% | 1015.9 hPa | 0 mm | - | 411 W/m² | - |
| 1777925297 | 25° C | 46% | 1016.1 hPa | 0 mm | - | 558 W/m² | - |
| 1777924993 | 25° C | 46% | 1016 hPa | 0 mm | - | 559 W/m² | - |
| 1777924689 | 25° C | 47% | 1016.1 hPa | 0 mm | - | 575 W/m² | - |
| 1777924385 | 25° C | 49% | 1016 hPa | 0 mm | - | 586 W/m² | - |
| 1777924082 | 25° C | 49% | 1016.3 hPa | 0 mm | - | 605 W/m² | - |
| 1777923779 | 24.44° C | 48% | 1016.3 hPa | 0 mm | - | 603 W/m² | - |
| 1777923475 | 24.44° C | 51% | 1016.6 hPa | 0 mm | - | 621 W/m² | - |
| 1777923172 | 25° C | 48% | 1016.5 hPa | 0 mm | - | 640 W/m² | - |
| 1777922871 | 24.44° C | 53% | 1016.4 hPa | 0 mm | - | 659 W/m² | - |
| 1777922568 | 24.44° C | 48% | 1016.6 hPa | 0 mm | - | 672 W/m² | - |
| 1777922267 | 24.44° C | 51% | 1016.6 hPa | 0 mm | - | 686 W/m² | - |
| 1777921963 | 24.44° C | 49% | 1016.7 hPa | 0 mm | - | 686 W/m² | - |
| 1777921659 | 24.44° C | 52% | 1016.6 hPa | 0 mm | - | 678 W/m² | - |
| 1777921356 | 24.44° C | 51% | 1016.4 hPa | 0 mm | - | 686 W/m² | - |
| 1777921052 | 23.89° C | 52% | 1016.6 hPa | 0 mm | - | 691 W/m² | - |
| 1777920749 | 23.89° C | 50% | 1016.5 hPa | 0 mm | - | 700 W/m² | - |
| 1777920445 | 23.89° C | 52% | 1016.8 hPa | 0 mm | - | 681 W/m² | - |
| 1777920141 | 23.89° C | 55% | 1016.8 hPa | 0 mm | - | 708 W/m² | - |
| 1777919837 | 23.33° C | 52% | 1016.7 hPa | 0 mm | - | 715 W/m² | - |
| 1777919534 | 23.33° C | 53% | 1016.9 hPa | 0 mm | - | 723 W/m² | - |
* Rain latest hour (hover to see other rain measurements)
** Current wind speed in m/s (hover to see current wind gust speed)